Location: Piotrkow Trybunalski
(51.4000°N, 19.6830°E)
Time: 05:58:52
(UTC+02:00)

STRAND 1 - Pass Details

Date: 25 February 2024
Orbit: 764 x 779 km, 98.4° (Epoch: 24 April)

Event Time Altitude Azimuth Distance (km) Brightness Sun altitude
Rises 17:41:51 0° 20° (NNE) 3,272 ? -5.2°
Reaches altitude 10° 17:44:20 10° 28° (NNE) 2,338 ? -5.5°
Maximum altitude 17:49:09 39° 97° (E) 1,153 ? -6.3°
Drops below altitude 10° 17:53:55 10° 166° (SSE) 2,312 ? -7.0°
Sets 17:56:21 0° 174° (S) 3,232 ? -7.4°
